Time,TemperatureF,DewpointF,PressureIn,WindDirection,WindDirectionDegrees,WindSpeedMPH,WindSpeedGustMPH,Humidity,HourlyPrecipIn,Conditions,Clouds,dailyrainin,SoftwareType,DateUTC
2013-06-02 00:00:00,73.3,31.0,29.83,NE,47,8.0,20.0,21,0.00,,,0.00,Wunderground v.1.15,2013-06-02 06:00:00,
2013-06-02 00:10:00,73.1,30.8,29.82,ESE,117,9.0,9.0,21,0.00,,,0.00,Wunderground v.1.15,2013-06-02 06:10:00,
2013-06-02 00:20:00,72.9,30.6,29.83,East,83,8.0,22.0,21,0.00,,,0.00,Wunderground v.1.15,2013-06-02 06:20:00,
2013-06-02 00:30:00,72.6,30.4,29.84,East,90,9.0,10.0,21,0.00,,,0.00,Wunderground v.1.15,2013-06-02 06:30:00,
2013-06-02 00:40:00,72.4,30.2,29.84,East,94,10.0,10.0,21,0.00,,,0.00,Wunderground v.1.15,2013-06-02 06:40:00,
2013-06-02 00:50:00,72.2,30.1,29.84,South,169,10.0,13.0,21,0.00,,,0.00,Wunderground v.1.15,2013-06-02 06:50:00,
2013-06-02 01:00:00,71.7,30.8,29.84,ENE,71,9.0,9.0,22,0.00,,,0.00,Wunderground v.1.15,2013-06-02 07:00:00,
2013-06-02 01:10:00,71.4,30.5,29.84,NNW,329,9.0,21.0,22,0.00,,,0.00,Wunderground v.1.15,2013-06-02 07:10:00,
2013-06-02 01:20:00,71.2,30.4,29.83,ESE,121,11.0,11.0,22,0.00,,,0.00,Wunderground v.1.15,2013-06-02 07:20:00,
2013-06-02 01:30:00,70.8,30.0,29.83,North,10,10.0,10.0,22,0.00,,,0.00,Wunderground v.1.15,2013-06-02 07:30:00,
2013-06-02 01:40:00,70.5,29.8,29.83,SE,136,9.0,9.0,22,0.00,,,0.00,Wunderground v.1.15,2013-06-02 07:40:00,
2013-06-02 01:50:00,70.2,30.6,29.83,ENE,74,10.0,21.0,23,0.00,,,0.00,Wunderground v.1.15,2013-06-02 07:50:00,
2013-06-02 02:00:00,69.8,30.3,29.83,East,84,10.0,21.0,23,0.00,,,0.00,Wunderground v.1.15,2013-06-02 08:00:00,
2013-06-02 02:10:00,69.7,31.3,29.83,ESE,107,10.0,10.0,24,0.00,,,0.00,Wunderground v.1.15,2013-06-02 08:10:00,
2013-06-02 02:20:00,69.3,31.9,29.83,ESE,109,10.0,10.0,25,0.00,,,0.00,Wunderground v.1.15,2013-06-02 08:20:00,
2013-06-02 02:30:00,68.9,31.6,29.83,NE,42,10.0,10.0,25,0.00,,,0.00,Wunderground v.1.15,2013-06-02 08:30:00,
2013-06-02 02:40:00,68.6,31.3,29.83,East,100,9.0,21.0,25,0.00,,,0.00,Wunderground v.1.15,2013-06-02 08:40:00,
2013-06-02 02:50:00,68.4,32.1,29.83,ENE,60,10.0,21.0,26,0.00,,,0.00,Wunderground v.1.15,2013-06-02 08:50:00,
2013-06-02 03:00:00,68.3,32.1,29.83,NNE,12,9.0,21.0,26,0.00,,,0.00,Wunderground v.1.15,2013-06-02 09:00:00,
2013-06-02 03:10:00,68.2,32.9,29.83,ENE,77,9.0,21.0,27,0.00,,,0.00,Wunderground v.1.15,2013-06-02 09:10:00,
2013-06-02 03:20:00,68.2,32.9,29.83,ESE,122,7.0,21.0,27,0.00,,,0.00,Wunderground v.1.15,2013-06-02 09:20:00,
2013-06-02 03:30:00,68.3,33.9,29.83,NE,42,8.0,21.0,28,0.00,,,0.00,Wunderground v.1.15,2013-06-02 09:30:00,
2013-06-02 03:40:00,68.2,32.9,29.83,East,89,8.0,21.0,27,0.00,,,0.00,Wunderground v.1.15,2013-06-02 09:40:00,
2013-06-02 03:50:00,68.1,32.8,29.83,ESE,121,8.0,8.0,27,0.00,,,0.00,Wunderground v.1.15,2013-06-02 09:50:00,
2013-06-02 04:00:00,68.1,32.8,29.83,ENE,67,9.0,21.0,27,0.00,,,0.00,Wunderground v.1.15,2013-06-02 10:00:00,
2013-06-02 04:10:00,67.9,33.6,29.83,ESE,121,7.0,21.0,28,0.00,,,0.00,Wunderground v.1.15,2013-06-02 10:10:00,
2013-06-02 04:20:00,67.8,33.5,29.83,ESE,123,8.0,8.0,28,0.00,,,0.00,Wunderground v.1.15,2013-06-02 10:20:00,
2013-06-02 04:30:00,67.7,33.4,29.83,East,99,7.0,7.0,28,0.00,,,0.00,Wunderground v.1.15,2013-06-02 10:30:00,
2013-06-02 04:40:00,67.5,33.2,29.83,ESE,111,8.0,8.0,28,0.00,,,0.00,Wunderground v.1.15,2013-06-02 10:40:00,
2013-06-02 04:50:00,67.4,33.1,29.84,ESE,109,7.0,21.0,28,0.00,,,0.00,Wunderground v.1.15,2013-06-02 10:50:00,
2013-06-02 05:00:00,67.0,33.7,29.83,ESE,109,6.0,6.0,29,0.00,,,0.00,Wunderground v.1.15,2013-06-02 11:00:00,
2013-06-02 05:10:00,66.9,33.6,29.83,ESE,121,6.0,6.0,29,0.00,,,0.00,Wunderground v.1.15,2013-06-02 11:10:00,
2013-06-02 05:20:00,66.8,33.5,29.84,ENE,68,6.0,21.0,29,0.00,,,0.00,Wunderground v.1.15,2013-06-02 11:20:00,
2013-06-02 05:30:00,66.7,33.4,29.84,NE,46,7.0,21.0,29,0.00,,,0.00,Wunderground v.1.15,2013-06-02 11:30:00,
2013-06-02 05:40:00,66.5,34.1,29.84,ENE,65,7.0,21.0,30,0.00,,,0.00,Wunderground v.1.15,2013-06-02 11:40:00,
2013-06-02 05:50:00,66.3,33.9,29.84,NE,55,6.0,6.0,30,0.00,,,0.00,Wunderground v.1.15,2013-06-02 11:50:00,
2013-06-02 06:00:00,66.1,33.7,29.85,SE,128,6.0,6.0,30,0.00,,,0.00,Wunderground v.1.15,2013-06-02 12:00:00,
2013-06-02 06:10:00,66.1,33.7,29.85,East,94,6.0,6.0,30,0.00,,,0.00,Wunderground v.1.15,2013-06-02 12:10:00,
2013-06-02 06:20:00,66.2,33.8,29.86,ENE,70,5.0,5.0,30,0.00,,,0.00,Wunderground v.1.15,2013-06-02 12:20:00,
2013-06-02 06:30:00,66.5,34.1,29.86,NE,52,4.0,4.0,30,0.00,,,0.00,Wunderground v.1.15,2013-06-02 12:30:00,
2013-06-02 06:40:00,66.3,32.2,29.86,NE,51,1.0,21.0,28,0.00,,,0.00,Wunderground v.1.15,2013-06-02 12:40:00,
2013-06-02 06:50:00,65.2,32.1,29.87,NNE,19,2.0,21.0,29,0.00,,,0.00,Wunderground v.1.15,2013-06-02 12:50:00,
2013-06-02 07:00:00,64.7,31.7,29.87,North,351,3.0,3.0,29,0.00,,,0.00,Wunderground v.1.15,2013-06-02 13:00:00,
2013-06-02 07:10:00,65.4,34.8,29.87,NNW,332,2.0,2.0,32,0.00,,,0.00,Wunderground v.1.15,2013-06-02 13:10:00,
2013-06-02 07:20:00,66.0,32.8,29.88,NNW,332,2.0,21.0,29,0.00,,,0.00,Wunderground v.1.15,2013-06-02 13:20:00,
2013-06-02 07:30:00,65.6,33.3,29.88,NNW,340,3.0,21.0,30,0.00,,,0.00,Wunderground v.1.15,2013-06-02 13:30:00,
2013-06-02 07:40:00,65.9,33.6,29.88,NNW,341,2.0,2.0,30,0.00,,,0.00,Wunderground v.1.15,2013-06-02 13:40:00,
2013-06-02 07:50:00,66.3,33.9,29.88,NNW,335,1.0,1.0,30,0.00,,,0.00,Wunderground v.1.15,2013-06-02 13:50:00,
2013-06-02 08:00:00,66.9,34.4,29.88,NW,317,2.0,21.0,30,0.00,,,0.00,Wunderground v.1.15,2013-06-02 14:00:00,
2013-06-02 08:10:00,67.1,34.6,29.88,NW,323,3.0,3.0,30,0.00,,,0.00,Wunderground v.1.15,2013-06-02 14:10:00,
2013-06-02 08:20:00,67.9,34.4,29.88,NW,323,2.0,2.0,29,0.00,,,0.00,Wunderground v.1.15,2013-06-02 14:20:00,
2013-06-02 08:30:00,68.8,34.3,29.88,NW,320,2.0,21.0,28,0.00,,,0.00,Wunderground v.1.15,2013-06-02 14:30:00,
2013-06-02 08:40:00,69.1,34.6,29.88,NW,321,2.0,21.0,28,0.00,,,0.00,Wunderground v.1.15,2013-06-02 14:40:00,
2013-06-02 08:50:00,69.9,34.4,29.88,NW,325,2.0,21.0,27,0.00,,,0.00,Wunderground v.1.15,2013-06-02 14:50:00,
2013-06-02 09:00:00,70.8,34.2,29.88,NNW,339,2.0,21.0,26,0.00,,,0.00,Wunderground v.1.15,2013-06-02 15:00:00,
2013-06-02 09:10:00,70.9,34.3,29.88,NNW,339,2.0,2.0,26,0.00,,,0.00,Wunderground v.1.15,2013-06-02 15:10:00,
2013-06-02 09:20:00,72.1,35.3,29.87,NNW,339,2.0,21.0,26,0.00,,,0.00,Wunderground v.1.15,2013-06-02 15:20:00,
2013-06-02 09:30:00,73.9,34.8,29.87,NNW,337,1.0,21.0,24,0.00,,,0.00,Wunderground v.1.15,2013-06-02 15:30:00,
2013-06-02 09:40:00,74.5,35.3,29.87,NNW,337,1.0,21.0,24,0.00,,,0.00,Wunderground v.1.15,2013-06-02 15:40:00,
2013-06-02 09:50:00,74.3,35.2,29.87,North,355,1.0,21.0,24,0.00,,,0.00,Wunderground v.1.15,2013-06-02 15:50:00,
2013-06-02 10:00:00,75.0,34.7,29.86,NNE,22,2.0,2.0,23,0.00,,,0.00,Wunderground v.1.15,2013-06-02 16:00:00,
2013-06-02 10:10:00,75.5,35.1,29.86,NNE,22,2.0,21.0,23,0.00,,,0.00,Wunderground v.1.15,2013-06-02 16:10:00,
2013-06-02 10:20:00,75.7,35.3,29.86,NNE,22,2.0,21.0,23,0.00,,,0.00,Wunderground v.1.15,2013-06-02 16:20:00,
2013-06-02 10:30:00,76.6,34.9,29.85,North,9,2.0,21.0,22,0.00,,,0.00,Wunderground v.1.15,2013-06-02 16:30:00,
2013-06-02 10:40:00,76.9,35.1,29.85,North,10,2.0,21.0,22,0.00,,,0.00,Wunderground v.1.15,2013-06-02 16:40:00,
2013-06-02 10:50:00,77.0,35.2,29.85,NE,38,3.0,3.0,22,0.00,,,0.00,Wunderground v.1.15,2013-06-02 16:50:00,
2013-06-02 11:00:00,77.5,35.6,29.85,NE,39,1.0,1.0,22,0.00,,,0.00,Wunderground v.1.15,2013-06-02 17:00:00,
2013-06-02 11:10:00,79.2,35.9,29.84,NE,39,0.0,21.0,21,0.00,,,0.00,Wunderground v.1.15,2013-06-02 17:10:00,
2013-06-02 11:20:00,79.9,35.2,29.84,SE,143,3.0,21.0,20,0.00,,,0.00,Wunderground v.1.15,2013-06-02 17:20:00,
2013-06-02 11:30:00,78.7,35.5,29.83,SSE,167,3.0,21.0,21,0.00,,,0.00,Wunderground v.1.15,2013-06-02 17:30:00,
2013-06-02 11:40:00,78.6,35.4,29.83,SSE,159,4.0,21.0,21,0.00,,,0.00,Wunderground v.1.15,2013-06-02 17:40:00,
2013-06-02 11:50:00,78.8,35.5,29.83,SSE,159,1.0,21.0,21,0.00,,,0.00,Wunderground v.1.15,2013-06-02 17:50:00,
2013-06-02 12:00:00,79.4,36.0,29.82,SE,136,2.0,21.0,21,0.00,,,0.00,Wunderground v.1.15,2013-06-02 18:00:00,
2013-06-02 12:10:00,79.7,35.1,29.81,South,186,4.0,4.0,20,0.00,,,0.00,Wunderground v.1.15,2013-06-02 18:10:00,
2013-06-02 12:20:00,80.1,35.4,29.81,SSW,207,4.0,4.0,20,0.00,,,0.00,Wunderground v.1.15,2013-06-02 18:20:00,
2013-06-02 12:30:00,80.9,36.1,29.80,SW,215,4.0,21.0,20,0.00,,,0.00,Wunderground v.1.15,2013-06-02 18:30:00,
2013-06-02 12:40:00,81.2,36.3,29.80,SSW,192,5.0,21.0,20,0.00,,,0.00,Wunderground v.1.15,2013-06-02 18:40:00,
2013-06-02 12:50:00,82.4,36.0,29.79,South,190,2.0,2.0,19,0.00,,,0.00,Wunderground v.1.15,2013-06-02 18:50:00,
2013-06-02 13:00:00,81.9,36.9,29.78,SSW,198,4.0,4.0,20,0.00,,,0.00,Wunderground v.1.15,2013-06-02 19:00:00,
2013-06-02 13:10:00,82.4,36.0,29.77,SSW,213,3.0,3.0,19,0.00,,,0.00,Wunderground v.1.15,2013-06-02 19:10:00,
2013-06-02 13:20:00,83.6,37.0,29.76,SW,218,4.0,4.0,19,0.00,,,0.00,Wunderground v.1.15,2013-06-02 19:20:00,
2013-06-02 13:30:00,84.7,36.5,29.76,SSW,193,3.0,21.0,18,0.00,,,0.00,Wunderground v.1.15,2013-06-02 19:30:00,
2013-06-02 13:40:00,85.0,36.7,29.75,SE,134,4.0,4.0,18,0.00,,,0.00,Wunderground v.1.15,2013-06-02 19:40:00,
2013-06-02 13:50:00,85.2,36.9,29.73,SW,217,3.0,3.0,18,0.00,,,0.00,Wunderground v.1.15,2013-06-02 19:50:00,
2013-06-02 14:00:00,85.5,37.1,29.73,SSW,192,3.0,21.0,18,0.00,,,0.00,Wunderground v.1.15,2013-06-02 20:00:00,
2013-06-02 14:10:00,86.3,37.8,29.72,SW,219,3.0,21.0,18,0.00,,,0.00,Wunderground v.1.15,2013-06-02 20:10:00,
2013-06-02 14:20:00,85.5,37.1,29.71,SW,223,4.0,4.0,18,0.00,,,0.00,Wunderground v.1.15,2013-06-02 20:20:00,
2013-06-02 14:30:00,85.4,38.4,29.70,South,179,3.0,3.0,19,0.00,,,0.00,Wunderground v.1.15,2013-06-02 20:30:00,
2013-06-02 14:40:00,86.5,38.0,29.69,South,179,1.0,21.0,18,0.00,,,0.00,Wunderground v.1.15,2013-06-02 20:40:00,
2013-06-02 14:50:00,85.9,38.8,29.69,SSW,206,2.0,2.0,19,0.00,,,0.00,Wunderground v.1.15,2013-06-02 20:50:00,
2013-06-02 15:00:00,86.1,37.6,29.68,SSW,206,1.0,1.0,18,0.00,,,0.00,Wunderground v.1.15,2013-06-02 21:00:00,
2013-06-02 15:10:00,85.9,38.8,29.68,SW,219,1.0,1.0,19,0.00,,,0.00,Wunderground v.1.15,2013-06-02 21:10:00,
2013-06-02 15:20:00,85.4,38.4,29.69,WSW,241,2.0,21.0,19,0.00,,,0.00,Wunderground v.1.15,2013-06-02 21:20:00,
2013-06-02 15:30:00,84.9,39.3,29.69,WSW,240,3.0,21.0,20,0.00,,,0.00,Wunderground v.1.15,2013-06-02 21:30:00,
2013-06-02 15:40:00,84.1,41.1,29.68,SSW,208,4.0,4.0,22,0.00,,,0.00,Wunderground v.1.15,2013-06-02 21:40:00,
2013-06-02 15:50:00,84.0,35.9,29.69,SSW,202,3.0,21.0,18,0.00,,,0.00,Wunderground v.1.15,2013-06-02 21:50:00,
2013-06-02 16:00:00,84.0,34.5,29.68,ESE,122,5.0,21.0,17,0.00,,,0.00,Wunderground v.1.15,2013-06-02 22:00:00,
2013-06-02 16:10:00,83.3,35.4,29.67,South,173,7.0,21.0,18,0.00,,,0.00,Wunderground v.1.15,2013-06-02 22:10:00,
2013-06-02 16:20:00,82.5,37.4,29.67,SSE,148,8.0,21.0,20,0.00,,,0.00,Wunderground v.1.15,2013-06-02 22:20:00,
2013-06-02 16:30:00,81.6,37.9,29.66,SE,130,5.0,5.0,21,0.00,,,0.00,Wunderground v.1.15,2013-06-02 22:30:00,
2013-06-02 16:40:00,81.3,36.4,29.66,ESE,113,5.0,5.0,20,0.00,,,0.00,Wunderground v.1.15,2013-06-02 22:40:00,
2013-06-02 16:50:00,81.3,36.4,29.65,ESE,104,2.0,21.0,20,0.00,,,0.00,Wunderground v.1.15,2013-06-02 22:50:00,
2013-06-02 17:00:00,81.3,37.6,29.65,East,93,2.0,2.0,21,0.00,,,0.00,Wunderground v.1.15,2013-06-02 23:00:00,
2013-06-02 17:10:00,81.3,37.6,29.65,East,96,3.0,21.0,21,0.00,,,0.00,Wunderground v.1.15,2013-06-02 23:10:00,
2013-06-02 17:20:00,81.7,38.0,29.64,ESE,110,3.0,21.0,21,0.00,,,0.00,Wunderground v.1.15,2013-06-02 23:20:00,
2013-06-02 17:30:00,81.9,38.1,29.64,East,101,4.0,21.0,21,0.00,,,0.00,Wunderground v.1.15,2013-06-02 23:30:00,
2013-06-02 17:40:00,83.3,38.0,29.63,East,95,4.0,4.0,20,0.00,,,0.00,Wunderground v.1.15,2013-06-02 23:40:00,
2013-06-02 17:50:00,83.6,37.0,29.63,ESE,113,5.0,21.0,19,0.00,,,0.00,Wunderground v.1.15,2013-06-02 23:50:00,
2013-06-02 18:00:00,82.5,37.4,29.63,SE,125,8.0,8.0,20,0.00,,,0.00,Wunderground v.1.15,2013-06-03 00:00:00,
2013-06-02 18:10:00,82.2,38.4,29.63,ESE,106,7.0,21.0,21,0.00,,,0.00,Wunderground v.1.15,2013-06-03 00:10:00,
2013-06-02 18:20:00,81.8,39.2,29.62,East,94,7.0,7.0,22,0.00,,,0.00,Wunderground v.1.15,2013-06-03 00:20:00,
2013-06-02 18:30:00,81.6,40.2,29.62,SSE,155,6.0,21.0,23,0.00,,,0.00,Wunderground v.1.15,2013-06-03 00:30:00,
2013-06-02 18:40:00,80.8,40.6,29.62,ESE,117,7.0,7.0,24,0.00,,,0.00,Wunderground v.1.15,2013-06-03 00:40:00,
2013-06-02 18:50:00,81.3,41.0,29.61,ESE,111,4.0,21.0,24,0.00,,,0.00,Wunderground v.1.15,2013-06-03 00:50:00,
2013-06-02 19:00:00,81.0,41.9,29.61,ESE,114,6.0,6.0,25,0.00,,,0.00,Wunderground v.1.15,2013-06-03 01:00:00,
2013-06-02 19:10:00,80.8,42.7,29.61,SE,126,7.0,7.0,26,0.00,,,0.00,Wunderground v.1.15,2013-06-03 01:10:00,
2013-06-02 19:20:00,80.2,45.1,29.60,ESE,118,5.0,21.0,29,0.00,,,0.00,Wunderground v.1.15,2013-06-03 01:20:00,
2013-06-02 19:30:00,79.9,42.9,29.60,SE,125,6.0,21.0,27,0.00,,,0.00,Wunderground v.1.15,2013-06-03 01:30:00,
2013-06-02 19:40:00,80.2,43.2,29.61,SE,125,4.0,21.0,27,0.00,,,0.00,Wunderground v.1.15,2013-06-03 01:40:00,
2013-06-02 19:50:00,80.2,43.2,29.61,ESE,114,4.0,4.0,27,0.00,,,0.00,Wunderground v.1.15,2013-06-03 01:50:00,
2013-06-02 20:00:00,80.0,44.0,29.61,SE,146,4.0,4.0,28,0.00,,,0.00,Wunderground v.1.15,2013-06-03 02:00:00,
2013-06-02 20:10:00,79.6,43.6,29.61,ESE,122,4.0,4.0,28,0.00,,,0.00,Wunderground v.1.15,2013-06-03 02:10:00,
2013-06-02 20:20:00,79.5,43.5,29.60,SE,138,2.0,21.0,28,0.00,,,0.00,Wunderground v.1.15,2013-06-03 02:20:00,
2013-06-02 20:30:00,79.4,43.4,29.61,SE,142,2.0,2.0,28,0.00,,,0.00,Wunderground v.1.15,2013-06-03 02:30:00,
2013-06-02 20:40:00,79.0,44.0,29.61,SE,142,1.0,1.0,29,0.00,,,0.00,Wunderground v.1.15,2013-06-03 02:40:00,
2013-06-02 20:50:00,78.7,43.8,29.60,SE,142,2.0,21.0,29,0.00,,,0.00,Wunderground v.1.15,2013-06-03 02:50:00,
2013-06-02 21:00:00,78.6,43.7,29.61,SE,142,0.0,21.0,29,0.00,,,0.00,Wunderground v.1.15,2013-06-03 03:00:00,
2013-06-02 21:10:00,78.3,44.3,29.61,SE,142,0.0,21.0,30,0.00,,,0.00,Wunderground v.1.15,2013-06-03 03:10:00,
2013-06-02 21:20:00,77.9,44.0,29.61,SE,142,0.0,21.0,30,0.00,,,0.00,Wunderground v.1.15,2013-06-03 03:20:00,
2013-06-02 21:30:00,77.5,44.5,29.62,SE,142,0.0,21.0,31,0.00,,,0.00,Wunderground v.1.15,2013-06-03 03:30:00,
2013-06-02 21:40:00,76.8,44.7,29.62,SE,142,0.0,21.0,32,0.00,,,0.00,Wunderground v.1.15,2013-06-03 03:40:00,
2013-06-02 21:50:00,76.9,44.8,29.63,SE,139,1.0,1.0,32,0.00,,,0.00,Wunderground v.1.15,2013-06-03 03:50:00,
2013-06-02 22:00:00,76.5,45.2,29.63,SE,138,0.0,21.0,33,0.00,,,0.00,Wunderground v.1.15,2013-06-03 04:00:00,
2013-06-02 22:10:00,76.0,45.6,29.63,SE,138,1.0,1.0,34,0.00,,,0.00,Wunderground v.1.15,2013-06-03 04:10:00,
2013-06-02 22:20:00,75.2,45.7,29.64,North,11,2.0,2.0,35,0.00,,,0.00,Wunderground v.1.15,2013-06-03 04:20:00,
2013-06-02 22:30:00,75.0,44.7,29.64,North,11,2.0,21.0,34,0.00,,,0.00,Wunderground v.1.15,2013-06-03 04:30:00,
2013-06-02 22:40:00,74.6,45.1,29.64,North,11,1.0,1.0,35,0.00,,,0.00,Wunderground v.1.15,2013-06-03 04:40:00,
2013-06-02 22:50:00,74.0,45.3,29.65,North,11,0.0,21.0,36,0.00,,,0.00,Wunderground v.1.15,2013-06-03 04:50:00,
2013-06-02 23:00:00,73.7,45.1,29.65,North,11,0.0,21.0,36,0.00,,,0.00,Wunderground v.1.15,2013-06-03 05:00:00,
2013-06-02 23:10:00,73.5,45.6,29.66,North,11,0.0,21.0,37,0.00,,,0.00,Wunderground v.1.15,2013-06-03 05:10:00,
2013-06-02 23:20:00,73.0,45.2,29.66,North,11,0.0,21.0,37,0.00,,,0.00,Wunderground v.1.15,2013-06-03 05:20:00,
2013-06-02 23:30:00,73.0,45.2,29.67,North,11,0.0,21.0,37,0.00,,,0.00,Wunderground v.1.15,2013-06-03 05:30:00,
2013-06-02 23:40:00,72.8,45.0,29.67,North,11,0.0,21.0,37,0.00,,,0.00,Wunderground v.1.15,2013-06-03 05:40:00,
2013-06-02 23:50:00,72.5,45.4,29.67,North,11,0.0,21.0,38,0.00,,,0.00,Wunderground v.1.15,2013-06-03 05:50:00,